Theta_e
333 334 335 337 339 339 340 343 344 343 345 347 348 350 350 351 352 353 353 354 357 358 359 361 361 362 362 358 360 361 361 361 361 360 361 361 360 360 359 356 356 358 359 356 360 357 360 362 360 360 361 361 364 363 366 370 371 365 366 368 365 364 364
331 331 331 333 334 335 338 341 343 344 344 344 344 348 349 350 352 352 353 355 356 357 358 359 361 362 361 361 360 361 361 361 362 362 360 361 362 362 360 358 358 359 364 360 361 359 362 360 360 359 358 361 362 366 367 370 370 368 365 368 364 363 363
331 331 332 333 333 335 338 338 340 340 342 342 342 344 345 349 350 353 354 355 356 358 360 361 361 358 361 362 362 361 359 359 361 359 359 358 358 361 360 361 366 364 360 358 361 359 362 363 365 362 359 359 359 363 366 369 369 366 366 368 366 362 364
334 333 334 334 335 337 338 339 339 340 339 340 341 342 343 346 349 352 355 357 357 358 358 362 363 362 359 358 359 362 361 359 359 359 358 363 362 362 360 357 359 357 357 357 357 357 359 361 362 362 363 360 359 361 365 365 366 366 364 368 365 363 365
333 334 335 335 334 335 336 337 338 340 340 340 342 343 344 345 348 351 353 356 357 356 358 360 362 363 363 363 358 358 359 359 358 362 362 362 360 362 359 357 357 358 358 356 357 359 360 359 358 359 361 362 358 360 363 364 364 365 366 369 366 362 363
331 332 333 334 333 334 335 336 337 338 341 340 342 343 345 346 347 346 351 355 356 357 358 360 361 361 362 363 363 359 359 359 361 364 356 354 357 358 355 356 355 359 356 355 356 357 358 357 357 359 358 359 359 356 359 361 362 362 366 368 366 363 360
332 333 333 334 333 334 334 336 336 339 340 341 343 343 345 346 346 346 351 354 355 354 356 357 359 361 361 362 362 363 362 360 369 363 358 355 358 359 355 355 356 357 355 355 357 359 358 355 358 360 358 359 360 355 359 363 362 362 363 368 365 363 363
332 333 335 334 334 334 335 338 338 339 340 341 341 342 343 344 347 349 351 353 353 355 356 357 357 360 360 361 361 361 361 361 368 363 360 358 358 357 354 354 355 357 357 359 361 358 356 357 357 358 358 357 360 359 356 361 364 363 361 364 366 364 361
334 335 335 334 335 335 337 338 339 339 341 342 342 343 345 347 348 349 351 351 352 352 354 356 358 360 361 361 360 360 361 362 367 361 359 358 358 357 354 354 357 359 358 361 360 358 357 357 358 359 358 359 362 361 360 361 362 366 362 362 364 364 361
334 335 336 336 337 337 338 338 338 339 340 342 343 345 346 348 350 348 349 350 352 352 355 356 357 359 361 360 360 361 360 361 366 364 359 357 358 358 356 355 357 359 360 362 361 357 358 360 355 359 364 362 362 361 363 361 363 366 365 363 365 364 363
335 336 336 336 335 337 339 339 340 342 343 344 344 345 346 347 348 348 348 350 350 352 354 355 357 358 360 360 359 360 359 361 362 362 361 358 358 359 359 359 359 361 362 362 362 361 362 363 362 360 362 359 362 363 364 363 364 366 366 366 366 366 362
332 334 335 336 337 337 338 339 341 341 341 343 343 344 345 346 346 347 347 349 350 351 353 355 357 358 360 360 360 360 360 360 362 361 361 360 359 359 360 360 361 362 363 364 363 364 365 365 362 357 356 360 364 364 366 368 366 366 367 366 366 364 364
332 334 335 336 337 337 338 338 338 339 340 341 341 343 344 344 345 347 348 349 350 351 352 354 355 355 358 359 360 359 361 360 359 360 361 361 361 361 361 362 363 365 364 365 364 364 363 364 364 361 360 363 365 365 366 366 369 367 367 366 367 367 365
331 334 335 336 335 335 335 336 337 338 339 340 341 343 344 344 345 346 347 348 350 351 352 353 353 356 356 357 357 358 357 358 361 364 364 364 363 363 364 365 365 364 364 364 363 362 362 363 363 364 364 364 361 366 365 368 364 366 368 369 368 369 368
330 331 332 333 334 335 335 335 336 336 337 339 340 341 343 343 345 347 348 349 350 352 353 355 353 353 355 355 356 357 359 360 361 362 362 364 363 363 363 364 364 363 363 363 362 362 362 363 363 363 362 362 366 364 366 364 364 363 362 366 367 369 370
328 330 331 332 333 334 334 335 335 335 336 337 338 339 342 343 343 345 347 348 350 351 353 352 351 351 351 352 354 357 356 359 360 360 359 357 359 362 363 362 362 362 360 360 361 362 363 364 364 364 363 361 361 364 361 360 356 358 357 358 367 371 368
329 330 331 332 332 333 334 334 334 335 335 336 337 339 341 342 344 345 346 348 349 351 352 352 349 349 349 350 352 355 358 354 359 360 357 357 359 359 361 361 360 360 359 359 360 360 363 363 364 364 363 363 362 357 359 358 358 356 348 349 357 368 368
328 329 329 331 332 333 333 333 333 334 334 335 337 338 341 342 342 343 344 348 349 350 351 351 350 348 348 350 352 353 354 356 356 359 358 358 357 359 359 360 360 360 359 359 359 360 361 361 363 366 367 365 365 364 362 362 358 342 342 346 348 360 365
327 328 328 330 330 331 332 333 333 334 334 336 337 338 341 343 343 343 345 347 348 350 350 351 351 350 350 351 352 353 355 356 356 357 358 358 359 360 360 358 358 359 359 358 360 361 359 361 363 363 364 363 363 361 361 360 350 338 339 341 342 347 362
328 328 329 330 330 331 332 332 333 334 335 336 338 340 343 344 344 346 347 348 350 349 349 350 351 351 351 352 353 354 355 355 356 356 357 358 358 359 360 358 355 356 360 361 361 360 358 359 361 361 361 361 361 361 362 362 346 336 337 338 338 342 354
327 327 328 329 330 330 332 333 333 334 335 336 338 341 342 342 345 345 345 347 346 347 348 350 351 351 351 351 353 353 354 354 355 356 357 358 357 358 358 358 355 353 359 361 361 359 357 357 357 358 359 359 358 361 360 361 338 333 335 335 335 338 355
325 327 327 329 330 331 332 332 332 333 335 337 338 340 342 342 344 344 344 346 345 346 348 349 350 350 351 352 352 353 354 354 354 353 355 356 357 353 352 354 354 353 357 361 363 363 361 359 359 358 358 359 358 357 357 360 332 333 333 332 332 338 357
326 327 328 330 331 331 332 333 333 334 335 336 338 341 341 343 344 344 343 344 344 346 347 348 349 350 350 351 352 352 354 354 354 354 354 355 355 355 353 352 353 355 351 354 359 360 359 358 359 360 359 358 357 356 357 362 336 329 329 329 329 341 355
326 328 329 330 332 332 332 333 334 335 334 336 340 341 342 343 343 343 343 344 345 346 346 346 345 344 347 348 348 353 354 354 355 355 355 355 353 352 353 354 353 352 351 355 357 358 357 357 356 358 358 357 356 357 358 361 341 326 325 326 327 346 354
325 326 328 330 329 330 331 333 334 334 336 337 337 340 342 343 343 343 342 344 346 346 345 345 346 344 341 344 346 349 352 354 354 355 355 354 354 351 350 353 353 352 355 358 357 356 356 356 355 355 357 358 358 356 357 359 342 322 324 324 326 345 355
325 326 329 330 330 332 333 335 335 334 335 336 338 341 342 342 341 343 344 345 346 345 344 345 347 345 344 345 348 350 352 348 352 354 354 357 357 357 355 357 356 356 355 356 356 356 356 355 355 353 352 355 355 353 356 357 348 332 321 323 325 335 355
328 328 329 330 330 333 333 333 333 333 336 339 341 341 342 342 342 342 344 345 344 343 345 345 346 345 346 350 351 352 353 354 350 349 354 356 356 355 357 358 359 359 353 354 357 355 354 354 354 352 352 353 355 357 356 356 349 337 320 321 324 328 339
328 329 331 332 334 333 332 332 334 337 337 339 340 342 343 343 342 342 344 344 342 344 345 347 345 346 346 347 347 344 349 353 353 351 350 354 354 354 354 357 358 355 353 353 353 352 351 350 350 352 353 355 356 356 356 355 349 342 323 321 321 324 331
327 327 328 330 331 333 332 332 334 335 339 339 342 344 345 345 344 344 343 341 342 344 346 346 346 344 344 344 344 344 341 347 350 350 351 352 353 354 356 357 356 356 356 354 353 352 350 350 350 351 353 351 351 352 351 348 346 335 331 321 319 321 325
327 328 329 331 331 332 334 334 336 338 342 342 344 345 345 344 342 341 340 341 345 346 347 346 343 342 342 343 344 343 343 343 348 349 349 350 352 355 355 354 353 352 354 352 353 351 350 348 348 348 347 348 346 348 348 348 347 336 334 328 320 320 320
326 327 330 330 332 333 335 336 337 339 340 341 343 345 345 345 342 342 343 344 347 349 346 343 340 340 341 343 343 341 344 348 349 349 349 350 350 350 353 353 353 350 350 352 352 351 349 347 345 343 343 343 341 341 342 342 342 338 334 331 326 320 318
329 330 330 331 333 336 340 340 340 339 338 340 343 343 342 341 342 341 342 345 346 346 345 341 337 337 338 341 342 342 343 346 348 348 349 349 349 350 351 349 350 349 349 352 352 351 349 346 345 344 342 341 342 341 341 340 339 336 335 335 333 328 322
328 329 330 331 335 338 338 338 335 335 336 337 340 342 343 342 341 342 342 341 341 343 343 342 340 337 338 340 342 344 345 348 349 350 351 352 349 348 347 348 349 346 346 348 347 346 347 346 346 345 343 342 342 340 340 340 337 337 337 335 332 331 332
329 330 333 335 338 339 338 337 337 337 336 334 339 341 342 341 339 337 339 339 343 344 343 342 341 340 339 341 340 344 346 347 344 346 348 347 346 346 347 349 347 346 345 345 346 344 344 345 344 343 342 341 340 339 338 336 334 332 332 334 334 334 334
331 333 335 336 337 338 336 337 336 336 336 336 339 340 340 337 340 338 338 339 341 344 343 341 341 338 339 340 341 345 347 348 346 346 344 344 340 336 332 334 343 346 348 349 350 349 346 346 344 344 346 343 341 340 337 335 333 334 326 332 326 332 331
334 334 334 336 337 337 337 337 336 335 335 337 338 339 340 340 336 339 340 340 341 341 343 342 341 339 339 340 343 345 344 345 346 346 345 342 337 333 329 316 305 310 336 346 331 317 319 331 348 347 345 343 345 345 337 335 336 322 315 311 312 313 314
333 332 332 335 335 336 337 337 337 337 337 338 339 339 339 339 340 338 339 341 342 341 343 342 341 339 340 340 342 343 342 343 343 341 340 338 337 334 334 331 324 303 300 310 320 309 303 306 314 325 332 344 342 333 322 322 315 309 309 309 309 307 305
335 335 335 336 336 336 336 336 337 337 337 337 338 338 340 340 340 338 339 339 340 346 344 343 343 341 340 341 344 345 344 343 339 337 335 334 336 336 335 333 330 323 305 300 303 303 301 301 304 308 313 318 326 332 327 315 309 305 305 306 306 304 303
Wind_Speed
4 4 5 4 4 5 5 5 5 5 4 4 4 4 5 5 5 6 5 6 8 9 10 12 13 12 15 16 16 15 16 15 14 15 14 14 14 13 11 10 13 13 10 12 9 11 11 11 11 11 11 12 12 11 11 9 9 9 9 8 8 8 8
4 5 5 5 5 5 6 5 4 4 4 4 5 5 4 5 5 6 7 8 9 9 10 11 12 13 14 15 15 15 16 17 16 14 14 12 12 13 11 14 11 10 9 9 7 11 9 10 10 11 11 11 12 11 11 10 10 10 9 10 10 9 8
5 5 6 6 6 6 6 6 6 6 6 6 6 7 7 6 6 6 7 8 9 9 9 10 11 12 13 14 15 16 17 17 17 17 17 13 15 14 10 4 3 5 6 9 4 8 9 9 8 10 11 11 12 12 11 11 10 10 10 9 10 10 9
4 5 6 6 5 5 5 6 6 6 7 7 7 8 8 7 7 7 7 8 10 10 11 11 11 12 13 14 15 15 17 17 17 16 16 13 1 5 4 8 7 8 7 8 7 8 7 6 10 11 11 11 11 11 12 12 11 11 12 10 9 10 10
4 5 4 5 6 6 6 5 7 6 7 8 8 8 8 8 7 7 7 8 9 11 11 11 10 11 12 13 12 12 15 16 16 9 3 5 8 10 9 9 10 11 11 11 10 8 9 10 10 10 10 11 12 11 12 12 11 11 10 10 9 10 9
5 5 5 5 6 6 7 7 8 8 8 8 9 9 8 8 8 9 8 8 9 10 10 11 12 12 13 13 13 14 13 13 9 9 12 14 13 11 14 13 12 11 12 12 11 12 11 11 11 11 13 12 13 13 13 13 12 12 11 10 10 10 10
5 5 5 5 6 6 7 8 9 8 8 8 8 8 8 8 9 9 8 9 9 11 11 11 11 12 12 11 13 14 15 13 9 13 10 13 11 14 16 14 14 14 13 12 13 11 12 12 12 10 13 13 11 14 13 12 12 12 11 10 11 10 10
5 5 5 6 6 6 7 7 9 9 8 9 9 9 10 10 9 9 9 9 10 10 10 11 11 11 11 11 10 12 13 15 11 10 9 8 11 14 15 15 14 13 13 14 13 12 12 12 11 11 12 13 14 13 14 12 12 12 11 11 11 12 10
4 4 5 6 6 6 7 8 8 9 10 11 11 10 10 9 8 9 10 11 10 11 12 11 11 11 11 11 10 12 13 14 10 9 10 12 13 14 15 15 14 13 13 14 13 13 13 13 12 12 13 12 11 13 14 13 13 12 12 11 12 12 12
4 4 4 6 6 6 7 8 8 8 9 10 10 10 10 9 9 11 11 11 11 11 12 12 11 11 11 10 11 12 13 13 12 13 13 14 13 13 15 15 14 14 14 14 13 14 13 12 14 13 12 13 15 15 13 13 13 12 12 12 12 12 12
3 4 4 6 7 8 8 8 9 8 9 9 10 10 10 10 10 11 11 11 11 11 11 11 11 11 12 11 11 12 12 13 14 15 15 15 14 16 16 15 14 12 13 12 13 13 12 12 11 12 11 12 15 13 13 13 13 12 12 11 12 12 12
4 5 5 7 8 9 9 9 9 9 10 9 10 10 10 10 11 10 10 11 10 10 11 11 11 11 12 11 11 11 13 13 14 16 16 15 14 15 15 13 13 13 12 13 13 13 12 12 10 10 15 14 14 13 13 11 12 13 12 12 12 12 12
6 6 7 7 8 8 9 9 11 11 11 11 12 12 12 12 11 11 11 12 11 10 9 10 11 11 12 12 11 10 11 12 14 14 15 14 14 13 13 13 14 13 13 12 13 13 12 12 12 13 12 10 11 13 12 12 11 11 12 12 12 12 13
8 7 7 7 8 9 10 11 11 12 12 13 12 13 12 12 11 11 11 11 11 11 9 7 10 11 12 12 12 11 11 11 12 12 13 12 13 13 13 12 11 11 10 10 11 12 12 12 12 11 11 9 13 12 11 9 9 12 12 12 12 11 11
9 9 8 8 9 9 10 11 11 12 13 12 13 14 14 12 11 10 11 11 11 10 8 7 8 11 11 13 12 12 11 10 9 7 10 12 14 14 15 13 11 11 11 10 11 11 12 13 12 13 12 12 8 9 7 8 8 6 11 11 12 10 7
9 9 8 9 10 10 10 11 12 12 13 13 14 14 13 12 12 11 11 12 11 10 9 7 7 9 11 12 13 12 12 11 9 9 9 11 13 13 13 14 12 12 13 13 13 13 12 13 13 13 13 12 12 7 8 7 8 9 10 12 8 8 8
9 9 9 9 10 11 11 12 13 13 13 14 14 14 13 12 12 12 11 11 11 11 9 8 8 8 8 10 11 12 12 11 10 9 11 12 11 10 11 12 12 12 14 14 14 14 13 12 13 12 11 11 9 10 7 7 6 11 11 14 13 10 9
9 9 9 10 10 10 11 12 13 13 14 14 14 14 13 13 12 12 11 11 11 11 10 9 8 8 8 9 10 11 11 10 11 11 11 12 13 12 13 12 12 12 13 13 14 14 13 13 12 10 9 9 9 10 10 8 9 11 14 15 14 12 9
10 10 10 11 11 11 12 12 13 14 14 13 13 13 14 13 12 12 11 11 11 11 11 10 9 9 10 10 10 10 10 10 10 11 11 12 12 11 11 12 13 13 13 14 13 13 13 11 10 10 9 10 11 12 11 10 11 15 15 15 15 14 11
10 10 11 11 11 12 12 12 12 13 14 14 14 13 12 12 12 11 11 11 11 11 11 11 10 9 9 9 9 9 9 9 9 10 11 10 10 10 10 10 12 13 11 10 10 11 11 10 9 9 10 10 11 11 10 10 14 17 17 15 16 15 13
10 11 11 12 12 12 13 13 14 14 15 14 14 13 12 12 11 11 11 11 12 12 12 10 10 10 9 9 9 8 8 9 9 10 10 9 9 9 8 8 7 10 9 9 9 10 10 9 9 10 9 10 11 10 10 8 16 17 17 15 15 14 12
11 11 12 11 12 12 13 14 14 14 14 13 13 12 12 12 12 12 12 12 12 12 11 10 10 10 10 9 8 8 8 9 9 9 10 10 9 10 11 9 9 10 9 7 7 6 6 7 8 9 10 11 10 11 11 8 17 17 17 16 15 13 11
11 12 12 12 12 13 13 13 14 14 14 13 13 12 12 12 12 12 12 12 11 11 11 10 10 10 9 9 9 8 8 8 9 9 10 9 10 10 10 10 10 9 7 10 9 8 8 9 9 10 11 12 11 12 11 8 14 17 16 15 15 13 11
12 12 12 12 12 13 14 13 13 14 14 15 14 13 12 12 12 12 11 11 11 11 11 11 11 11 11 10 10 8 8 9 9 9 8 8 9 9 9 8 7 6 9 10 10 10 10 9 11 11 12 13 13 12 11 8 12 16 15 15 16 15 10
13 13 12 13 14 15 14 13 14 15 14 13 14 13 13 13 13 11 11 11 11 10 11 11 10 8 11 12 12 11 9 9 9 9 9 8 8 8 10 9 8 8 11 8 9 9 9 11 11 10 7 8 11 12 11 8 10 16 17 17 18 15 11
14 14 13 13 14 14 14 13 13 14 13 13 13 13 13 12 11 11 10 11 11 12 11 10 8 8 10 12 13 11 9 9 10 9 8 8 7 8 8 8 8 11 11 10 10 10 9 10 10 9 8 9 9 10 11 9 10 14 18 18 18 15 9
14 13 14 14 14 14 12 13 12 13 13 11 12 12 11 10 10 11 10 10 11 11 11 11 11 11 11 11 11 11 8 7 7 10 9 8 8 8 7 8 8 8 9 9 9 8 7 9 8 9 9 9 10 10 10 9 11 12 19 18 17 14 12
14 13 12 13 14 14 12 12 13 13 12 11 11 11 10 9 10 11 11 11 11 11 11 11 12 12 11 11 11 12 11 7 7 6 7 7 7 7 7 7 8 8 10 10 10 10 9 8 8 8 7 6 6 6 7 8 13 11 14 17 17 16 13
14 13 13 14 14 14 13 12 12 12 12 11 11 10 10 10 11 11 11 12 12 12 11 11 11 12 11 10 10 8 11 9 6 6 5 6 7 7 7 7 8 9 10 10 9 8 8 7 7 6 5 5 5 6 6 8 10 16 14 17 15 16 16
13 13 13 13 14 14 14 13 12 11 11 11 10 10 9 10 10 11 12 14 12 11 10 10 10 10 11 10 10 8 9 8 6 4 5 7 7 6 6 7 8 9 8 9 8 8 8 7 6 5 5 5 5 5 6 8 7 12 15 13 17 20 21
14 14 13 14 14 14 13 12 13 11 11 10 11 10 9 9 10 12 15 14 11 10 8 10 10 10 11 11 8 8 10 6 4 4 5 6 7 7 6 8 8 8 8 9 8 7 6 6 6 6 6 6 6 5 5 6 6 6 11 17 17 21 21
14 14 14 14 13 12 11 10 11 11 11 11 11 10 8 10 11 12 12 13 12 13 8 6 10 11 10 11 9 7 8 6 3 4 5 7 6 6 6 7 7 7 8 7 6 5 5 7 6 7 6 6 5 6 6 8 7 8 9 13 18 19 22
15 14 14 14 13 11 11 11 11 11 11 11 11 10 9 9 10 10 10 12 12 11 8 7 7 11 10 10 8 7 7 6 4 4 4 5 4 4 6 6 5 6 6 6 6 6 6 6 6 7 6 6 6 7 7 7 7 7 7 8 13 13 15
14 14 13 12 11 11 12 12 12 11 12 12 10 10 10 10 9 10 7 11 12 11 11 9 7 6 7 10 8 6 5 4 3 4 2 2 3 4 4 4 5 5 6 7 6 6 6 6 6 6 6 7 8 8 8 7 9 9 5 7 13 12 12
13 13 12 12 11 11 11 11 11 11 12 11 10 10 9 10 8 6 10 10 11 11 11 9 7 6 9 8 6 4 3 3 2 0 0 3 4 5 6 4 3 3 4 3 3 2 3 5 5 6 6 7 8 9 9 9 10 8 12 11 15 16 14
11 12 12 11 10 11 11 11 11 11 11 10 10 9 9 6 8 9 8 9 10 11 10 9 6 6 6 9 6 4 3 3 1 1 2 4 5 5 6 10 13 10 5 2 7 10 9 3 2 6 9 9 7 6 10 11 13 15 15 15 16 16 18
11 11 12 11 11 11 11 11 11 11 11 11 9 9 8 7 5 7 8 8 9 10 10 9 6 5 5 6 6 4 5 3 2 1 2 5 6 5 4 3 9 16 16 12 8 10 11 11 10 10 9 8 9 4 11 19 17 16 17 18 21 22 23
11 11 10 10 10 10 11 11 11 11 11 10 9 9 8 7 6 7 7 8 10 9 10 9 7 5 4 5 4 2 3 2 1 1 2 2 3 6 5 4 4 7 14 14 13 13 12 10 10 10 11 10 10 10 11 20 20 15 15 19 21 22 22
Wind_Direction
101 87 75 77 60 41 33 30 13 13 1 349 344 346 334 330 337 309 307 298 287 275 266 261 255 249 248 248 245 241 239 235 232 235 233 233 233 229 224 229 230 233 225 231 229 229 228 219 222 221 217 210 211 211 213 210 213 219 217 217 224 234 229
58 58 53 34 39 36 24 20 8 358 348 342 346 345 325 331 320 319 318 305 292 285 277 268 259 253 250 248 245 242 238 237 234 234 235 234 233 233 227 235 248 244 238 242 257 257 228 217 222 224 222 216 213 212 204 205 211 219 218 205 218 223 220
53 33 36 19 16 18 1 2 355 348 343 340 341 335 329 328 320 316 305 299 297 291 283 272 266 260 254 250 243 242 241 238 236 235 234 233 234 237 237 288 350 337 6 311 264 274 314 296 239 223 229 226 219 209 209 204 205 214 221 209 215 220 219
52 20 15 6 1 1 352 350 340 339 334 330 331 325 319 322 322 319 307 299 296 295 287 282 276 267 259 253 247 243 241 239 238 238 239 236 339 31 270 206 208 232 209 216 244 256 246 240 280 261 222 231 229 221 207 211 203 208 219 208 218 226 220
45 14 8 352 344 342 339 339 332 332 330 325 324 319 314 319 321 307 300 300 297 292 288 283 280 274 270 264 257 247 242 240 238 232 39 71 154 181 181 199 200 209 219 234 240 236 229 239 239 255 248 222 230 223 218 209 214 206 210 203 216 225 222
23 4 360 338 334 332 324 329 331 332 327 324 324 318 316 316 314 310 310 295 291 290 284 280 275 273 268 264 259 255 250 238 232 153 158 177 191 196 205 214 216 196 212 226 231 227 225 232 233 231 243 231 225 227 216 215 212 212 207 204 218 226 225
8 355 342 334 324 320 319 331 325 325 321 323 317 316 319 317 314 313 303 292 291 293 291 284 279 276 273 268 262 255 248 246 186 185 172 194 191 199 213 217 210 205 223 225 219 222 225 226 227 227 239 247 237 232 226 219 218 214 212 207 214 224 230
359 346 330 328 320 326 329 321 315 322 323 322 319 320 320 318 311 306 303 295 296 293 288 287 284 281 282 275 262 253 240 235 204 182 177 173 191 205 219 222 220 216 213 209 209 221 224 214 222 221 229 237 234 232 232 220 219 220 216 213 216 218 222
354 337 329 323 323 329 322 320 319 322 325 320 320 319 315 310 310 308 303 301 300 296 293 290 288 284 279 275 264 248 239 234 193 173 171 183 198 203 213 223 224 220 212 208 212 219 227 219 213 220 227 231 241 238 229 222 216 215 221 220 218 217 221
332 317 318 310 324 321 324 319 321 326 322 322 321 318 315 312 307 310 311 308 302 297 298 297 295 289 281 274 265 251 240 234 204 181 186 196 205 207 214 221 221 217 214 212 213 219 218 210 221 214 214 226 224 225 223 221 215 215 217 220 219 218 220
298 299 304 314 322 323 319 320 323 316 313 315 316 313 313 311 309 309 310 309 307 302 300 296 295 291 286 279 269 257 246 234 221 210 201 205 210 212 214 217 219 215 212 214 220 221 213 210 218 226 218 226 224 220 219 217 217 217 219 217 216 218 223
317 307 314 315 320 321 324 322 315 317 318 317 316 314 311 309 307 306 306 305 303 299 300 299 298 295 287 285 274 260 248 235 224 223 219 212 214 217 217 213 211 207 205 208 216 219 217 214 205 224 226 221 221 217 215 215 219 217 218 217 217 218 219
322 317 311 316 315 316 315 316 318 320 321 320 319 319 317 316 313 310 309 309 309 305 301 299 298 295 292 289 277 263 253 243 232 228 226 219 216 216 214 209 205 202 203 203 209 212 215 215 211 218 223 217 226 221 215 214 219 225 219 218 217 216 217
314 306 307 307 310 316 317 317 319 320 321 322 323 321 321 320 317 314 313 313 313 310 307 301 300 300 296 294 288 271 257 254 252 241 230 221 218 217 216 212 208 204 204 206 212 218 220 218 215 217 224 217 220 218 222 213 217 226 224 216 214 214 214
308 307 306 307 311 314 315 318 321 321 321 322 323 325 325 322 320 316 310 311 311 309 308 310 305 300 298 297 293 282 269 260 249 258 260 246 234 226 225 219 211 207 209 207 217 220 220 223 223 222 218 222 224 224 214 215 217 224 238 224 216 211 184
307 308 306 309 312 314 316 318 319 320 321 322 326 326 326 323 319 314 310 308 309 306 305 307 304 299 300 298 295 293 284 271 262 245 239 251 247 238 230 227 221 217 219 217 220 224 222 221 223 222 219 217 210 202 209 207 221 230 252 261 233 160 170
305 304 307 306 310 312 316 317 320 322 322 323 323 324 324 322 319 316 309 306 304 305 306 300 292 290 290 290 291 292 289 284 271 255 241 237 244 239 233 232 228 223 221 220 221 223 222 220 220 218 218 213 200 208 201 214 217 217 232 201 177 182 175
303 305 306 310 311 311 316 321 321 321 322 324 323 321 321 321 318 312 308 308 306 307 305 298 290 289 287 282 282 283 285 283 277 269 256 249 245 241 235 232 227 224 222 220 219 220 221 222 216 208 193 202 199 194 201 202 205 169 187 177 179 186 187
303 305 310 311 313 316 317 318 318 320 321 320 318 317 319 319 315 311 308 305 307 304 301 296 289 284 280 277 276 275 272 273 275 272 266 257 251 247 242 236 229 224 221 220 219 220 220 215 208 207 201 208 212 214 209 216 184 176 173 177 182 189 193
302 302 304 311 314 312 315 317 317 317 319 318 316 314 316 315 310 306 302 301 300 299 300 296 292 285 280 278 275 271 269 269 265 264 265 264 260 253 250 249 247 243 235 226 216 220 224 218 210 208 206 207 218 217 207 211 162 174 176 180 188 188 193
299 304 309 309 310 315 317 316 315 318 317 317 315 312 313 314 316 311 305 304 302 301 298 291 288 285 282 278 273 270 264 262 261 262 261 256 251 250 250 245 255 254 238 226 219 217 218 214 215 216 208 210 219 220 209 209 160 178 179 188 190 185 192
307 312 311 313 311 312 317 318 317 315 316 314 311 310 312 316 316 313 309 307 301 300 299 292 285 283 282 274 271 263 256 251 256 257 256 253 240 236 237 235 228 233 236 225 218 207 201 206 208 209 211 215 220 223 216 198 163 177 182 188 188 173 193
307 307 308 305 313 319 316 314 314 315 312 311 310 309 314 317 315 312 309 307 306 304 299 293 287 286 286 279 272 266 260 252 251 254 255 250 242 237 233 231 228 224 234 231 220 216 210 214 210 210 210 214 216 218 216 197 171 172 179 183 175 172 192
311 306 305 315 318 313 315 316 315 312 312 312 310 313 316 316 313 310 307 306 306 306 302 299 296 294 297 295 285 278 266 258 246 243 241 242 243 240 242 228 225 226 222 228 225 218 215 217 221 220 218 219 219 215 214 194 171 169 174 178 173 184 177
313 312 317 319 316 317 319 318 314 309 310 312 311 317 318 316 312 308 307 304 301 301 300 297 298 291 289 295 285 283 274 262 253 244 236 233 227 226 232 222 206 215 222 214 221 217 213 216 220 221 216 217 220 216 214 195 168 168 173 177 176 185 176
312 314 315 314 314 318 317 313 309 309 312 315 318 318 317 315 312 310 301 299 303 305 302 296 292 285 278 275 275 272 270 263 256 246 238 227 223 225 231 227 214 211 214 215 212 212 212 217 220 209 206 214 209 216 211 194 168 173 172 176 177 185 168
305 309 313 317 317 322 316 312 311 312 316 321 319 318 318 315 311 305 302 301 301 302 299 295 298 295 287 281 280 278 264 255 256 256 240 227 217 218 216 222 218 209 213 202 203 211 216 217 219 210 210 209 206 208 202 197 171 167 171 174 170 167 163
304 308 313 315 317 315 312 312 313 314 318 319 317 318 317 314 306 303 301 297 296 305 308 310 307 302 295 294 301 294 279 255 242 237 244 231 227 211 215 212 207 201 197 202 205 209 211 218 220 216 197 178 182 186 194 173 165 162 171 171 175 166 148
305 310 315 318 317 319 320 318 317 317 318 318 319 318 318 314 307 303 302 296 300 308 314 312 303 303 302 291 275 281 279 270 242 238 237 233 222 219 207 201 197 200 203 204 202 203 199 194 202 202 183 186 183 194 177 150 158 165 163 178 166 153 137
303 309 311 316 318 316 319 318 320 320 316 315 314 316 315 313 306 301 298 293 299 310 314 314 313 316 307 299 300 279 269 270 266 234 230 229 224 220 204 196 208 205 206 204 192 190 184 182 174 170 180 173 166 160 160 173 161 165 164 162 156 136 131
308 307 315 319 318 323 323 321 320 318 317 315 314 317 313 308 305 301 296 299 308 307 315 318 315 313 300 291 295 297 288 272 253 221 217 226 222 218 208 202 199 197 197 197 194 190 174 152 162 156 148 144 145 139 100 118 137 149 150 154 142 127 124
301 309 315 315 319 324 318 317 314 317 317 317 317 315 322 313 305 298 297 306 308 307 315 318 316 307 299 297 285 259 278 285 265 242 212 209 216 222 217 215 207 199 193 195 197 180 166 156 160 152 148 150 156 139 144 158 140 136 145 156 130 130 131
308 314 316 321 323 318 315 315 313 315 315 313 314 313 312 305 303 305 314 306 304 304 310 316 301 284 284 280 286 282 275 296 280 247 223 194 186 212 226 209 206 197 201 200 188 183 173 173 169 167 164 162 147 132 150 156 142 132 139 146 133 129 128
314 315 320 323 314 315 311 313 315 317 314 314 317 316 314 318 331 324 307 294 299 304 303 304 287 274 282 286 285 281 283 292 326 281 256 192 188 192 203 213 222 204 203 204 195 190 183 183 175 168 168 147 132 142 147 135 136 134 133 137 130 136 132
321 320 318 316 317 313 310 313 314 313 312 312 314 311 317 323 322 300 295 294 299 304 304 301 294 279 277 289 291 287 319 349 314 227 198 88 90 65 39 13 321 268 215 194 228 225 204 182 160 157 128 130 152 147 142 150 149 143 142 149 144 144 139
315 317 317 315 313 312 310 309 307 313 313 311 310 308 310 318 311 302 294 292 293 298 303 304 310 309 289 290 297 327 360 358 312 184 134 125 118 97 77 67 56 35 354 105 57 58 54 65 167 135 144 155 161 155 154 161 155 143 138 136 123 122 123
318 316 313 315 311 309 308 310 313 314 313 312 313 308 316 312 291 293 296 291 291 297 300 303 298 292 291 294 312 350 333 331 331 349 124 136 136 121 106 83 43 34 29 24 51 75 75 80 87 108 136 159 151 94 111 111 121 139 139 134 131 135 131
313 307 310 311 311 311 314 317 316 314 313 313 309 310 304 303 310 305 305 307 297 295 304 305 303 300 296 285 297 326 327 353 10 97 103 101 115 125 134 125 101 50 35 36 46 51 55 64 87 98 108 122 127 125 114 121 124 123 129 130 129 131 129